Regional Weather Roundup
Issued by NWS Northern Indiana

Home | Current Version | Previous Version | Text Only | Print | Product List | Glossary Off
Versions: 1 2 3 4 5 6 7 8 9 10 11 12 13 14 15 16 17 18 19 20 21 22 23 24 25 26 27 28 29 30 31 32 33 34 35 36 37 38 39 40 41 42 43 44 45 46 47 48 49 50

000
ASUS43 KIWX 010310
RWRIWX

KIWX WEATHER ROUNDUP
NATIONAL WEATHER SERVICE NORTHERN INDIANA
1100 PM EDT SAT APR 30 2016

NOTE: "FAIR" INDICATES FEW OR NO CLOUDS BELOW 12,000 FEET WITH NO
SIGNIFICANT WEATHER AND/OR OBSTRUCTIONS TO VISIBILITY.

* THESE STATIONS ARE NOT UNDER NWS QUALITY CONTROL. THEY ALSO MAY NOT
  REPORT WEATHER SUCH AS PRECIPITATION OR FOG.

INZ001>027-010400-
NORTHERN INDIANA

CITY           SKY/WX    TMP DP  RH WIND       PRES   REMARKS
GARY*          DRIZZLE   48  48 100 NE12      29.92R
VALPARAISO     CLOUDY    48  46  93 NE13      29.90R FOG
MICHIGAN CITY* DRIZZLE   46  46 100 NE6       29.91S
LAPORTE*       DRIZZLE  N/A N/A N/A NE10      29.91R
KNOX*          CLOUDY    46  45  93 E7        29.89R
SOUTH BEND     LGT RAIN  48  46  93 E10       29.92R
GOSHEN         LGT RAIN  48  45  89 E10       29.91S
MONTICELLO*    LGT RAIN  52  49  88 E5        29.85R
LOGANSPORT*    HVY RAIN  52  52 100 NE3       29.86S
ROCHESTER*     DRIZZLE   52  52 100 E8        29.88S
WARSAW*        RAIN      46  46 100 E8        29.89S
ANGOLA*        CLOUDY    46  36  66 NE7       29.92S
FORT WAYNE     LGT RAIN  50  49  96 E8        29.89S FOG
HUNTINGTON*    RAIN     N/A N/A N/A E3        29.87S
PERU/GRISSOM   DRIZZLE   54  54 100 E5        29.84S FOG
MARION*        CLOUDY    55  55 100 SE5       29.86S FOG

$$
INZ028>050-010400-
CENTRAL INDIANA

CITY           SKY/WX    TMP DP  RH WIND       PRES   REMARKS
LAFAYETTE      CLOUDY    56  55  97 CALM      29.84R FOG
KOKOMO*        CLOUDY    55  52  88 SE6       29.85S
MUNCIE*        CLOUDY    61  57  87 S8        29.87R
INDIANAPOLIS   CLOUDY    61  59  93 S9        29.85S

$$
MIZ043>046-050>051-056>058-064>065-071>073-077>080-010400-
SOUTHWEST LOWER MICHIGAN

CITY           SKY/WX    TMP DP  RH WIND       PRES   REMARKS
BATTLE CREEK   LGT RAIN  48  46  93 NE8       29.97R FOG
BENTON HARBOR  CLOUDY    49  46  90 E10       29.93F FOG
COLDWATER*     LGT RAIN  47  46  98 E9        29.94S
HILLSDALE*     RAIN      46  46 100 E7        29.94S
HOLLAND        LGT RAIN  53  46  77 NE9       29.99R
GRAND RAPIDS   RAIN      48  46  93 NE10      30.01S FOG
KALAMAZOO      LGT RAIN  49  45  86 NE7       29.96R FOG
STURGIS*       HVY RAIN  46  45  97 NE9       29.93S
THREE RIVERS*  LGT RAIN  47  46  97 E8        29.94F

$$
OHZ001>008-015>018-024>025-010400-
NORTHWEST OHIO

CITY           SKY/WX    TMP DP  RH WIND       PRES   REMARKS
WAUSEON*       LGT RAIN  48 N/A N/A E13G20    29.92F
DEFIANCE       CLOUDY    50  47  89 E10       29.92S
FINDLAY        LGT RAIN  53  48  83 E7        29.89F
TOLEDO EXPRESS LGT RAIN  49  47  93 E13       29.93F FOG
TOLEDO METCALF LGT RAIN  49  47  93 E8G18     29.95F FOG
LIMA           CLOUDY    54  53  97 SE8       29.89F

$$
AND FOR LAKE MICHIGAN COASTAL AND OPEN LAKE BUOY OBSERVATIONS

STATION/POSITION TEMP    WIND        PRES    VSBY  WAVE
                 AIR SEA DIR/SP/G                  HT/PER
                 (F)     (DEG/KT/KT) (MB)    (MI)  (FT/S)
CALUMET HARBOR    45      20/ 13/ 18 1012.8R
MICHIGAN CITY     48      30/ 12/ 13   N/A
BURNS HARBOR      48      50/ 14/ 17 1013.2R
SAINT JOSEPH      49      10/  3/  5 1013.5F
SOUTH LAKE BUOY   43 40   40/ 14/ 17 1015.1R         2/ 3
4 MI NW BRIDGMAN  49 47                N/A           2/ 3

$$
&&



USA.gov is the U.S. government's official web portal to all federal, state and local government web resources and services.